Location: Ay?beleni
(36.6500°N, 30.3000°E)
Time: 13:35:34
(UTC+00:00)

Cosmos 1328 - Visible Passes

Search period start: 06 August 2020 00:00
Search period end: 16 August 2020 00:00
Orbit: 538 x 546 km, 82.5° (Epoch: 05 August)

Date Brightness Start Highest point End Pass type
(mag) Time Alt. Az. Time Alt. Az. Time Alt. Az.
06 Aug 3.9 02:29:37 10° NNW 02:33:31 52° W 02:37:23 10° S visible
07 Aug 4.0 02:22:48 10° NNW 02:26:41 51° W 02:30:33 10° S visible
08 Aug 4.0 02:16:00 10° NNW 02:19:51 49° W 02:23:42 10° SSW visible
09 Aug 7.1 00:36:10 10° ENE 00:36:30 10° ENE 00:36:50 10° ENE visible
09 Aug 4.0 02:09:11 10° NNW 02:13:02 48° W 02:16:52 10° SSW visible
10 Aug 7.0 00:28:58 10° ENE 00:29:42 10° ENE 00:30:25 10° E visible
10 Aug 4.1 02:02:21 10° NNW 02:06:12 46° W 02:10:01 10° SSW visible
11 Aug 6.9 00:21:54 10° ENE 00:22:52 11° ENE 00:23:51 10° E visible
11 Aug 4.1 01:55:33 10° NNW 01:59:22 45° W 02:02:29 14° SSW visible
12 Aug 6.9 00:14:54 10° NE 00:16:04 11° ENE 00:17:13 10° E visible
12 Aug 4.1 01:48:44 10° NNW 01:52:33 44° W 01:54:32 24° SSW visible
13 Aug 6.8 00:07:55 10° NE 00:09:15 11° ENE 00:10:34 10° E visible
13 Aug 4.2 01:41:55 10° NNW 01:45:43 42° W 01:46:45 34° SW visible
14 Aug 6.8 00:00:58 10° NE 00:02:26 12° ENE 00:03:36 11° E visible
14 Aug 4.2 01:35:07 10° NNW 01:38:53 41° W 01:39:06 41° WSW visible
14 Aug 6.7 23:54:01 10° NE 23:55:37 12° ENE 23:56:02 12° E visible
15 Aug 4.4 01:28:18 10° NNW 01:31:32 38° WNW 01:31:32 38° WNW visible
15 Aug 6.8 23:47:06 10° NE 23:48:33 12° ENE 23:48:33 12° ENE visible
